Location: ?????????
(44.2517°N, 135.2292°E)
Time: 05:42:26
(UTC+00:00)

COBE Rocket - Pass Details

Date: 19 May 2025
Orbit: 676 x 772 km, 97.1° (Epoch: 15 June)

Event Time Altitude Azimuth Distance (km) Brightness Sun altitude
Rises 13:35:26 0° 9° (N) 3,231 8.2 -23.3°
Reaches altitude 10° 13:37:44 10° 7° (N) 2,310 7.3 -23.4°
Maximum altitude 13:42:50 70° 285° (WNW) 821 4.1 -23.7°
Enters shadow 13:44:13 47° 219° (SW) 1,011 4.3 -23.8°
